Home   Weather   Randaberg   Past weeks

Flag for Norway Past Weather in Randaberg, Norway — Yesterday and Last 2 Weeks

Now
49 °F

Scattered clouds.


Feels Like: 49 °F
Forecast: 52 / 58 °F
Wind: 2 mph from Southeast

Location: Stavanger / Sola

Current Time: Oct 1, 2016 at 9:06:04 AM

Latest Report: Oct 1, 2016 at 8:00 AM


Visibility: 19 mi

Pressure: 29.71 "Hg

Humidity: 93%

Dew Point: 47 °F

Location of RandabergLocation

Past Weather in Randaberg — Graph

°F

Randaberg Temperature Yesterday

Maximum temperature yesterday: 56 °F (at 1:00 PM)
Minimum temperature yesterday: 51 °F (at 7:00 AM)
Average temperature yesterday: 54 °F

High & Low Weather Summary for the Past Weeks

 TemperatureHumidityPressure
High77 °F (Sep 16, 2:00 PM)98% (Sep 20, 4:00 AM)30.24 "Hg (Sep 20, 4:00 AM)
Low49 °F (Oct 1, 8:00 AM)46% (Sep 25, 4:00 PM)29.18 "Hg (Sep 29, 3:00 PM)
Average60 °F77%29.96 "Hg
* Reported Sep 16 8:00 AM — Oct 1 8:00 AM, Randaberg, Weather by CustomWeather, © 2016

Note: Actual official high and low records may vary slightly from our data, if they occured in-between our weather recording intervals... More about our weather records

Advertising

Randaberg Weather History for the Previous 24 Hours

Scroll right to see more
 ConditionsComfort  
Time TempWeatherWind HumidityBarometerVisibility
8:00 AM
Sat, Oct 1
49 °FScattered clouds.2 mph93%29.71 "Hg19 mi
7:00 AM49 °FOvercast.2 mph93%29.70 "Hg22 mi
6:00 AM50 °FRain showers. Passing clouds.3 mph93%29.70 "Hg9 mi
5:00 AM51 °FLots of rain. Passing clouds.1 mph88%29.69 "Hg8 mi
3:00 AM51 °FRain showers. Passing clouds.2 mph87%29.67 "Hg7 mi
2:00 AM52 °FPassing clouds.6 mph84%29.66 "Hg16 mi
1:00 AM53 °FPassing clouds.7 mph75%29.65 "Hg19 mi
12:00 AM53 °FPassing clouds.6 mph75%29.64 "Hg19 mi
11:00 PM
Fri, Sep 30
52 °FRain showers. Passing clouds.6 mph75%29.63 "Hg10 mi
10:00 PM52 °FRain showers. Passing clouds.10 mph78%29.62 "Hg8 mi
9:00 PM53 °FPassing clouds.7 mph74%29.60 "Hg16 mi
8:00 PM54 °FLots of rain. Passing clouds.8 mph70%29.57 "Hg11 mi
7:00 PM54 °FPartly sunny.8 mph71%29.56 "Hg14 mi
6:00 PM54 °FPassing clouds.8 mph68%29.55 "Hg18 mi
5:00 PM54 °FScattered clouds.9 mph71%29.55 "Hg13 mi
4:00 PM54 °FRain showers. Passing clouds.9 mph65%29.55 "Hg13 mi
3:00 PM56 °FScattered clouds.12 mph66%29.54 "Hg16 mi
2:00 PM56 °FPartly sunny.12 mph62%29.54 "Hg14 mi
1:00 PM56 °FPassing clouds.12 mph56%29.53 "Hg16 mi
12:00 PM56 °FPassing clouds.12 mph56%29.53 "Hg12 mi
11:00 AM55 °FPassing clouds.10 mph57%29.50 "Hg16 mi
10:00 AM54 °FPassing clouds.9 mph57%29.50 "Hg15 mi
9:00 AM54 °FPartly sunny.10 mph61%29.50 "Hg16 mi
Weather by CustomWeather, © 2016

See weather overviewHow to use our weather pages